Temp
66 66 66 66 66 66 67 66 67 67 66 66 66 66 66 66 66 65 65 65 65 65 65 65 64 64 64 64 64 64 64 64 64 64 63 63 62 61 61 61 61 62
66 66 64 65 65 65 66 67 67 67 67 67 67 67 67 66 66 66 65 65 65 65 65 65 64 64 64 63 63 63 63 63 63 64 63 62 62 62 61 61 62 62
66 65 65 64 65 65 66 66 66 67 67 68 67 67 67 66 66 66 66 65 65 65 65 65 64 64 64 63 63 63 62 62 62 63 62 62 62 62 62 62 62 61
65 65 65 65 65 65 65 65 65 66 66 66 66 67 67 66 65 65 65 62 65 64 65 65 64 64 64 63 63 63 62 62 63 62 61 61 62 62 61 61 60 60
64 64 65 65 65 65 64 64 64 65 65 66 66 65 64 64 64 63 64 63 64 63 64 64 64 64 63 63 63 62 62 62 62 62 61 61 61 61 61 61 61 60
62 63 64 64 64 63 63 64 64 64 64 64 65 65 64 64 64 63 62 62 62 63 62 62 63 63 63 63 62 62 61 61 61 61 60 60 61 61 62 62 61 60
62 61 62 63 63 63 63 64 64 63 64 65 63 64 64 63 63 63 63 63 62 61 62 62 62 62 63 62 61 61 61 60 60 60 60 60 60 60 60 61 59 59
61 61 62 62 62 63 63 64 64 64 63 62 62 63 63 63 63 63 63 63 62 62 62 62 62 62 62 62 61 60 60 61 60 59 59 59 58 58 58 59 58 57
59 59 60 60 61 61 61 61 62 61 60 61 61 62 61 62 62 62 62 62 62 61 62 62 62 62 62 61 61 60 59 59 60 59 58 58 57 57 58 57 57 56
57 57 57 57 58 59 59 59 59 59 59 60 60 59 60 60 60 61 61 61 61 60 60 60 60 60 60 60 61 59 59 60 59 58 58 58 58 57 57 56 56 55
54 54 55 55 56 56 56 55 55 57 57 58 58 58 59 58 59 59 60 59 60 60 60 59 59 59 60 60 60 60 60 60 59 59 58 58 58 57 52 56 55 55
52 52 53 54 54 55 56 54 55 55 57 57 58 60 58 58 58 57 58 58 57 58 58 58 58 57 58 59 59 59 58 59 58 58 58 58 57 57 57 56 56 56
50 51 52 53 53 54 54 55 55 53 54 56 53 55 55 55 54 55 53 54 56 56 57 58 58 58 58 58 59 59 59 59 58 58 58 57 57 57 57 57 56 56
49 50 50 52 52 53 53 53 53 53 54 53 52 54 54 55 55 56 53 53 56 57 57 56 57 58 58 59 59 59 58 58 58 57 57 57 57 57 57 56 57 56
48 49 50 51 51 51 51 52 52 52 52 52 52 53 54 54 55 56 55 55 55 56 57 57 57 58 58 58 58 58 59 58 58 57 57 56 56 56 57 57 57 56
47 47 49 49 49 50 50 49 48 48 49 49 51 52 52 51 52 54 55 57 58 57 57 57 58 59 53 50 50 56 58 58 58 57 56 56 55 55 55 56 56 56
46 47 47 47 48 48 48 48 49 47 47 48 48 48 48 46 48 52 54 56 57 57 57 57 57 57 50 50 49 49 55 57 57 56 56 56 55 55 55 53 54 55
47 47 46 47 46 47 46 45 43 44 45 46 47 45 45 42 46 50 52 53 55 55 56 56 56 49 49 49 48 49 48 54 57 56 56 56 55 55 55 54 52 51
45 45 46 46 46 45 43 42 41 42 42 43 44 44 42 45 48 49 49 50 51 53 53 54 54 49 48 48 48 48 48 49 55 56 56 55 55 55 54 54 51 48
46 44 45 45 44 42 39 39 39 41 40 39 39 39 42 44 44 44 46 48 49 50 51 52 52 49 48 47 46 46 47 48 53 55 55 55 54 54 54 52 49 47
45 44 44 44 43 41 40 39 39 39 38 37 36 38 40 41 41 42 43 44 45 47 47 48 50 47 47 46 46 46 46 46 51 53 54 54 54 53 52 51 49 49
44 44 43 42 42 41 39 39 38 38 38 36 36 37 38 39 40 41 42 42 42 43 44 45 46 45 45 45 45 45 45 47 50 51 52 52 52 49 47 47 46 46
45 44 43 42 41 41 40 39 38 38 37 36 36 37 36 37 38 39 40 41 41 41 42 43 44 43 43 44 44 45 45 47 48 48 49 49 49 47 46 46 46 46
44 43 42 42 41 41 41 40 39 38 37 37 36 36 36 36 36 37 38 39 40 40 41 42 42 42 42 43 43 43 43 46 46 46 45 45 45 45 44 44 43 39
43 42 41 40 41 41 41 40 39 39 38 37 36 36 36 35 35 37 37 38 39 39 37 40 41 40 41 42 42 43 42 45 44 44 44 44 44 45 42 42 42 39
41 39 39 39 39 39 39 39 38 38 37 37 35 35 36 35 35 37 37 38 38 38 39 39 40 40 40 41 41 42 42 43 43 43 43 43 43 43 43 40 39 40
MSLP
1010.08 1010.16 1010.24 1010.28 1010.20 1010.12 1010.16 1010.28 1010.28 1010.40 1010.44 1010.48 1010.56 1010.48 1010.56 1010.48 1010.68 1010.88 1011.00 1011.20 1011.32 1011.40 1011.48 1011.64 1011.84 1012.04 1012.20 1012.28 1012.40 1012.52 1012.64 1012.64 1012.76 1012.84 1013.04 1013.24 1013.36 1013.48 1013.56 1013.68 1013.68 1013.68
1009.52 1009.64 1009.72 1009.76 1009.76 1009.68 1009.64 1009.60 1009.68 1009.76 1009.80 1009.80 1009.76 1009.84 1009.88 1010.00 1010.12 1010.28 1010.48 1010.64 1010.76 1010.80 1010.88 1011.08 1011.28 1011.48 1011.68 1011.88 1012.00 1012.12 1012.20 1012.28 1012.32 1012.32 1012.52 1012.68 1012.68 1012.88 1012.96 1013.08 1013.16 1013.24
1009.32 1009.36 1009.40 1009.44 1009.36 1009.28 1009.28 1009.24 1009.32 1009.32 1009.28 1009.16 1009.28 1009.36 1009.36 1009.48 1009.68 1009.80 1009.92 1010.04 1010.20 1010.28 1010.40 1010.48 1010.72 1010.92 1011.12 1011.28 1011.44 1011.60 1011.72 1011.84 1011.92 1011.92 1012.04 1012.12 1012.20 1012.32 1012.28 1012.56 1012.68 1012.80
1009.00 1008.92 1008.96 1008.96 1009.00 1009.04 1009.04 1009.12 1009.00 1008.92 1008.88 1009.00 1008.92 1008.84 1009.00 1009.08 1009.20 1009.36 1009.44 1009.60 1009.72 1009.84 1009.92 1010.08 1010.16 1010.36 1010.56 1010.68 1010.88 1011.04 1011.12 1011.24 1011.24 1011.48 1011.60 1011.68 1011.72 1011.76 1011.88 1012.08 1012.20 1012.40
1008.64 1008.56 1008.52 1008.52 1008.56 1008.64 1008.76 1008.88 1008.84 1008.76 1008.68 1008.60 1008.60 1008.64 1008.68 1008.80 1008.84 1008.96 1009.08 1009.24 1009.32 1009.44 1009.60 1009.72 1009.84 1009.96 1010.08 1010.24 1010.36 1010.52 1010.64 1010.72 1010.80 1010.96 1011.12 1011.24 1011.24 1011.40 1011.40 1011.68 1011.76 1011.88
1008.36 1008.28 1008.24 1008.24 1008.24 1008.36 1008.48 1008.44 1008.32 1008.32 1008.28 1008.32 1008.20 1008.24 1008.32 1008.28 1008.44 1008.52 1008.60 1008.76 1008.88 1009.00 1009.20 1009.36 1009.52 1009.56 1009.68 1009.80 1010.00 1010.04 1010.16 1010.28 1010.28 1010.44 1010.56 1010.68 1010.80 1010.88 1011.00 1011.12 1011.24 1011.40
1008.28 1008.16 1008.08 1007.96 1007.96 1007.88 1007.88 1007.80 1007.72 1007.72 1007.68 1007.60 1007.76 1007.84 1007.72 1007.92 1008.00 1008.00 1008.08 1008.20 1008.36 1008.56 1008.68 1008.84 1009.00 1009.12 1009.20 1009.36 1009.48 1009.60 1009.72 1009.84 1009.96 1010.04 1010.12 1010.16 1010.36 1010.48 1010.60 1010.68 1010.80 1010.92
1008.08 1007.96 1007.84 1007.76 1007.76 1007.64 1007.56 1007.36 1007.32 1007.32 1007.32 1007.48 1007.52 1007.32 1007.40 1007.48 1007.56 1007.60 1007.68 1007.80 1007.96 1008.12 1008.28 1008.36 1008.48 1008.60 1008.68 1008.88 1009.04 1009.24 1009.36 1009.44 1009.56 1009.64 1009.68 1009.76 1009.96 1010.12 1010.24 1010.28 1010.44 1010.64
1007.88 1007.76 1007.68 1007.64 1007.60 1007.48 1007.40 1007.28 1007.20 1007.16 1007.16 1007.20 1007.16 1007.08 1007.08 1007.12 1007.16 1007.32 1007.40 1007.48 1007.64 1007.72 1007.84 1007.92 1007.96 1008.12 1008.24 1008.44 1008.60 1008.80 1008.96 1009.04 1009.04 1009.16 1009.24 1009.36 1009.52 1009.60 1009.76 1009.96 1010.24 1010.28
1007.80 1007.60 1007.52 1007.48 1007.44 1007.32 1007.28 1007.08 1007.00 1006.96 1006.88 1006.88 1006.80 1006.84 1006.88 1006.88 1006.92 1007.00 1007.08 1007.20 1007.32 1007.40 1007.44 1007.52 1007.72 1007.80 1007.88 1008.00 1008.12 1008.36 1008.52 1008.60 1008.72 1008.80 1008.84 1008.92 1009.04 1009.20 1009.44 1009.68 1009.72 1009.92
1007.72 1007.56 1007.40 1007.20 1007.16 1007.12 1007.04 1006.92 1006.80 1006.72 1006.64 1006.56 1006.60 1006.60 1006.60 1006.72 1006.72 1006.72 1006.84 1006.96 1007.00 1007.08 1007.20 1007.28 1007.32 1007.40 1007.56 1007.64 1007.72 1007.80 1007.96 1008.08 1008.16 1008.24 1008.36 1008.44 1008.56 1008.72 1008.92 1009.12 1009.24 1009.28
1007.64 1007.48 1007.28 1006.96 1006.76 1006.68 1006.60 1006.60 1006.60 1006.56 1006.48 1006.44 1006.44 1006.40 1006.40 1006.44 1006.48 1006.60 1006.64 1006.68 1006.76 1006.80 1006.84 1006.84 1006.92 1007.04 1007.16 1007.24 1007.32 1007.40 1007.48 1007.52 1007.52 1007.60 1007.68 1007.80 1007.92 1008.08 1008.16 1008.28 1008.32 1008.40
1007.52 1007.24 1007.08 1006.92 1006.56 1006.28 1006.24 1006.24 1006.24 1006.24 1006.24 1006.20 1006.20 1006.24 1006.20 1006.20 1006.28 1006.36 1006.40 1006.48 1006.48 1006.48 1006.44 1006.44 1006.56 1006.68 1006.76 1006.80 1006.80 1006.84 1006.92 1007.04 1007.12 1007.12 1007.16 1007.20 1007.24 1007.36 1007.44 1007.56 1007.64 1007.76
1007.24 1007.08 1006.88 1006.72 1006.60 1006.28 1005.96 1005.84 1005.88 1005.92 1005.88 1005.84 1005.88 1005.88 1005.84 1005.84 1005.88 1005.92 1005.96 1006.08 1006.04 1006.04 1006.08 1006.24 1006.36 1006.40 1006.40 1006.36 1006.36 1006.36 1006.48 1006.60 1006.64 1006.68 1006.76 1006.80 1006.80 1006.88 1006.96 1007.12 1007.24 1007.36
1007.04 1006.92 1006.72 1006.52 1006.32 1006.28 1006.04 1005.72 1005.60 1005.60 1005.60 1005.60 1005.56 1005.44 1005.40 1005.36 1005.40 1005.48 1005.56 1005.56 1005.60 1005.72 1005.76 1005.88 1006.00 1006.00 1006.04 1006.12 1006.20 1006.24 1006.32 1006.32 1006.32 1006.40 1006.52 1006.56 1006.52 1006.56 1006.60 1006.68 1006.72 1006.76
1006.76 1006.68 1006.52 1006.40 1006.24 1005.96 1005.88 1005.80 1005.64 1005.48 1005.44 1005.40 1005.28 1005.16 1005.12 1005.08 1005.08 1005.08 1005.04 1004.96 1005.04 1005.16 1005.32 1005.40 1005.40 1005.24 1005.20 1005.36 1005.56 1005.72 1005.88 1005.96 1006.04 1006.12 1006.16 1006.24 1006.36 1006.40 1006.40 1006.40 1006.36 1006.44
1006.52 1006.32 1006.32 1006.20 1006.04 1005.92 1005.68 1005.64 1005.56 1005.48 1005.40 1005.28 1005.28 1005.32 1005.28 1005.24 1005.24 1005.04 1004.76 1004.56 1004.48 1004.52 1004.64 1004.68 1004.60 1004.40 1004.48 1004.76 1004.88 1005.00 1005.12 1005.24 1005.32 1005.40 1005.52 1005.60 1005.68 1005.80 1005.80 1005.96 1006.04 1006.04
1006.08 1006.04 1006.04 1005.88 1005.88 1005.76 1005.68 1005.64 1005.56 1005.48 1005.36 1005.32 1005.36 1005.44 1005.44 1005.56 1005.40 1005.16 1005.12 1005.08 1004.92 1004.80 1004.72 1004.56 1004.52 1004.48 1004.72 1004.72 1004.72 1004.84 1005.04 1005.04 1004.92 1004.92 1004.92 1004.96 1005.04 1005.12 1005.08 1005.24 1005.40 1005.64
1006.16 1006.12 1005.96 1005.84 1005.76 1005.72 1005.72 1005.72 1005.64 1005.60 1005.48 1005.32 1005.16 1005.20 1005.48 1005.48 1005.24 1005.20 1005.04 1004.96 1004.84 1004.60 1004.36 1004.20 1004.20 1004.12 1004.32 1004.28 1004.40 1004.56 1004.72 1004.88 1004.64 1004.52 1004.56 1004.48 1004.52 1004.52 1004.52 1004.56 1004.80 1005.12
1006.40 1006.32 1006.08 1005.88 1005.76 1005.68 1005.60 1005.52 1005.60 1005.52 1005.64 1005.88 1005.92 1005.84 1005.56 1005.32 1005.24 1005.16 1004.96 1004.88 1004.72 1004.56 1004.32 1004.16 1004.00 1003.80 1003.96 1004.00 1004.12 1004.20 1004.32 1004.48 1004.32 1004.16 1004.08 1004.00 1003.96 1003.96 1004.00 1004.12 1004.32 1004.60
1006.52 1006.32 1006.08 1005.88 1005.76 1005.60 1005.48 1005.40 1005.52 1005.60 1005.76 1005.92 1006.00 1005.92 1005.88 1005.56 1005.28 1005.08 1004.88 1004.84 1004.72 1004.60 1004.40 1004.04 1003.64 1003.60 1003.84 1003.88 1003.96 1003.96 1004.04 1004.24 1004.04 1003.88 1003.72 1003.52 1003.52 1003.60 1003.64 1003.68 1003.84 1003.96
1006.60 1006.36 1006.16 1006.04 1005.84 1005.64 1005.48 1005.32 1005.36 1005.40 1005.32 1005.48 1005.60 1005.56 1005.64 1005.56 1005.24 1005.04 1004.68 1004.56 1004.48 1004.52 1004.40 1003.88 1003.40 1003.52 1003.60 1003.64 1003.68 1003.72 1003.80 1003.88 1003.72 1003.56 1003.32 1003.20 1003.16 1003.28 1003.40 1003.48 1003.60 1003.72
1006.80 1006.52 1006.20 1006.00 1005.84 1005.64 1005.48 1005.36 1005.20 1005.12 1005.24 1005.40 1005.28 1005.12 1005.12 1005.04 1004.96 1004.92 1004.72 1004.56 1004.36 1004.24 1004.12 1003.64 1003.28 1003.36 1003.52 1003.44 1003.48 1003.56 1003.72 1003.52 1003.36 1003.24 1003.04 1002.92 1002.80 1003.00 1003.12 1003.08 1003.08 1003.16
1007.12 1006.88 1006.48 1006.12 1005.84 1005.60 1005.40 1005.24 1005.20 1005.12 1005.00 1005.04 1004.92 1004.72 1004.72 1004.68 1004.72 1004.56 1004.40 1004.40 1004.24 1004.04 1003.92 1003.68 1003.12 1003.16 1003.40 1003.28 1003.36 1003.40 1003.52 1003.40 1003.20 1003.08 1002.80 1002.76 1002.68 1002.80 1002.80 1002.76 1002.76 1002.80
1007.08 1006.88 1006.76 1006.52 1006.20 1005.88 1005.64 1005.28 1005.04 1004.92 1004.76 1004.84 1004.72 1004.68 1004.56 1004.56 1004.56 1004.40 1004.20 1004.04 1003.88 1003.76 1003.68 1003.60 1003.12 1003.08 1003.20 1003.12 1003.16 1003.24 1003.36 1003.32 1003.20 1003.00 1002.68 1002.36 1002.40 1002.32 1002.52 1002.68 1002.60 1002.60
1007.12 1006.92 1006.76 1006.68 1006.44 1006.12 1005.88 1005.56 1005.24 1004.96 1004.72 1004.64 1004.56 1004.60 1004.36 1004.28 1004.28 1004.16 1003.88 1003.52 1003.56 1003.48 1003.28 1003.16 1003.00 1002.80 1002.96 1002.96 1002.92 1002.96 1003.00 1003.04 1003.04 1002.92 1002.32 1002.00 1002.20 1002.20 1002.20 1002.40 1002.52 1002.52
Wind_Speed
10 10 11 10 11 10 10 10 10 10 10 10 11 11 11 11 10 12 13 12 13 14 14 14 13 13 11 12 12 11 11 13 12 11 13 13 13 14 14 14 13 13
12 11 10 10 10 10 10 10 11 11 11 11 11 10 10 10 11 11 12 13 14 14 14 14 14 14 13 11 12 12 11 11 13 10 12 14 13 13 15 15 15 12
9 10 11 11 12 12 12 10 10 10 11 11 9 9 9 8 10 11 12 13 13 14 14 14 13 13 13 13 12 12 12 12 13 11 11 13 12 12 12 12 12 13
10 11 11 11 10 10 9 9 10 10 9 9 10 9 7 7 8 10 11 12 13 13 13 13 14 13 13 14 13 12 12 12 12 11 11 10 11 11 11 10 11 11
9 10 10 10 9 9 8 9 10 9 9 10 8 8 8 7 8 8 9 10 11 11 11 12 12 12 13 13 13 12 12 12 12 12 12 11 10 11 10 9 10 11
7 7 8 9 9 8 9 10 11 10 10 9 11 9 8 9 8 9 9 10 10 11 11 11 12 12 12 13 12 12 12 11 11 12 13 12 11 11 9 10 12 13
8 6 7 7 7 9 10 11 11 11 11 11 7 9 10 9 9 10 10 10 10 11 11 11 12 12 11 11 12 12 12 12 11 12 13 12 11 12 11 11 12 13
8 7 8 7 8 9 11 11 10 10 9 7 9 10 9 10 10 10 9 10 10 10 11 11 11 12 11 11 12 12 12 10 11 13 13 13 12 13 13 12 11 12
7 7 6 7 8 8 9 9 9 8 7 8 9 9 7 9 9 8 9 9 10 10 11 11 12 11 11 11 12 12 12 12 12 12 13 13 13 14 13 12 12 12
7 7 7 7 8 8 8 8 8 8 7 8 9 7 9 8 7 8 8 9 10 10 11 11 11 11 11 10 12 12 12 13 12 12 12 13 13 13 12 12 13 12
7 7 7 8 8 8 9 8 7 9 8 8 8 8 7 7 8 7 8 8 10 10 10 10 11 11 11 11 10 10 12 12 13 13 12 13 13 13 12 12 13 13
8 7 9 9 9 8 9 8 8 7 8 7 7 9 8 8 8 7 8 9 8 8 8 10 10 10 10 11 11 10 10 12 12 12 13 13 13 13 13 14 15 15
7 8 9 9 9 9 8 7 8 7 7 8 6 7 7 8 6 7 6 7 8 7 9 9 9 9 10 10 11 11 12 12 12 12 12 13 13 14 14 14 14 14
7 7 8 8 9 8 7 7 6 6 7 7 6 8 8 8 8 8 7 6 7 8 8 7 8 9 10 11 11 12 11 12 12 13 13 12 13 13 13 13 14 14
7 6 7 7 8 7 8 7 7 6 6 6 7 8 9 8 8 8 8 8 7 7 7 7 8 10 9 10 11 12 12 13 13 13 12 12 13 12 12 12 13 14
7 6 7 7 7 9 8 7 6 6 6 6 7 7 7 7 7 8 9 11 11 10 9 9 11 11 13 17 15 12 11 11 11 12 12 12 12 12 12 13 14 12
7 7 6 8 8 8 8 7 7 6 6 7 7 6 6 5 4 7 10 10 11 12 12 12 13 13 19 18 19 20 16 13 12 12 11 12 12 13 13 12 12 12
7 7 7 8 7 8 7 6 6 6 7 7 7 7 7 5 7 8 6 6 8 8 10 12 11 13 15 17 18 19 17 14 12 12 11 12 12 13 12 11 11 11
7 7 7 8 8 7 6 6 6 7 8 8 10 8 5 8 10 9 9 7 8 10 11 11 11 13 15 17 17 18 19 17 13 13 12 12 12 12 12 12 10 10
8 7 8 8 7 7 6 6 6 8 7 6 5 4 7 8 8 10 10 10 11 11 11 11 11 14 16 16 16 17 18 17 14 14 13 12 12 12 12 11 10 9
8 8 9 9 8 7 6 6 6 7 7 5 5 7 7 9 8 9 10 10 10 10 10 12 13 15 14 15 14 15 16 15 12 12 13 13 12 11 10 10 10 11
7 8 8 8 8 8 7 7 7 7 8 6 5 6 6 7 8 8 10 9 9 9 10 13 13 15 15 15 15 14 15 12 11 12 13 12 12 9 8 8 8 9
8 9 9 9 8 8 8 8 8 8 7 5 7 7 7 8 8 8 8 8 9 9 11 13 12 12 14 16 15 15 12 10 10 10 11 12 11 9 9 9 10 10
8 8 9 9 9 9 9 9 8 7 7 5 7 7 8 8 6 8 7 7 9 10 9 11 12 10 12 14 14 15 13 11 9 9 11 10 10 9 9 9 9 13
7 7 7 8 9 9 9 10 9 8 7 5 6 6 8 5 5 7 7 7 8 9 11 12 12 10 10 12 14 14 12 10 9 8 10 11 10 11 7 7 8 10
8 9 8 7 9 10 9 9 8 8 7 7 6 5 7 6 5 7 9 9 7 8 9 10 11 10 8 12 13 14 15 11 7 9 12 11 9 9 7 6 7 7
Wind_Direction
220 218 222 223 225 224 222 220 219 221 217 213 215 216 214 215 204 202 206 208 209 210 209 210 209 212 213 210 209 212 212 213 215 212 212 210 214 215 218 219 220 219
220 218 220 222 226 224 225 220 221 221 223 220 220 218 217 211 208 201 202 207 209 212 210 210 208 208 210 210 208 210 213 215 218 211 215 212 216 215 219 219 223 222
225 224 222 221 224 225 224 224 224 224 226 226 225 219 219 209 208 205 204 205 208 210 212 210 209 207 208 210 210 210 211 214 219 216 217 217 217 220 222 217 221 219
230 226 225 226 226 229 229 228 227 229 229 229 226 224 217 211 206 206 208 205 209 211 212 212 211 208 207 209 210 214 212 214 215 214 218 219 220 221 222 216 218 218
233 231 227 226 225 226 226 229 231 231 229 231 233 225 218 215 211 207 207 208 209 212 211 214 214 212 209 211 209 214 213 216 213 213 217 220 220 221 223 216 218 218
247 236 231 227 224 219 222 226 228 227 226 226 225 219 218 216 211 208 206 206 206 209 210 211 213 214 212 213 212 215 212 214 213 211 216 219 220 221 223 222 225 225
257 250 242 232 228 221 223 225 227 225 227 227 219 220 217 214 213 213 212 209 205 206 208 209 210 212 211 211 212 215 214 215 214 214 218 221 220 225 223 224 225 226
260 253 245 239 236 234 231 232 230 228 228 227 223 227 215 217 215 216 214 213 211 210 211 213 212 213 211 210 212 213 214 212 214 214 220 222 219 225 223 225 223 224
260 258 252 248 242 241 242 240 239 235 222 221 226 228 221 218 217 215 214 214 215 215 215 217 217 216 213 213 215 214 215 216 217 216 219 220 220 221 221 219 221 221
262 257 257 254 251 248 247 244 237 233 225 225 226 223 223 224 216 216 216 215 218 219 215 216 218 219 217 214 214 214 218 221 221 221 221 222 222 221 218 214 218 220
266 263 256 251 249 250 251 248 243 237 230 228 225 227 225 222 227 222 223 219 221 220 219 217 217 216 218 218 218 215 217 221 221 221 221 221 221 220 215 214 215 217
267 266 258 251 244 245 245 246 245 240 237 237 226 231 229 225 224 223 222 226 226 223 220 220 216 212 213 216 217 217 220 221 221 219 218 218 217 216 214 213 215 216
267 260 257 257 249 241 241 241 239 237 235 236 228 228 228 229 226 227 228 224 228 224 223 221 219 213 214 214 215 217 219 221 222 222 220 219 217 215 216 216 218 219
261 259 259 257 260 255 241 237 237 237 235 235 227 229 227 225 222 220 224 216 224 222 224 219 222 220 220 221 220 221 221 224 224 223 224 223 222 221 218 218 219 221
265 263 258 259 257 263 261 250 239 237 239 235 230 231 227 224 219 216 218 221 223 225 228 219 221 225 223 223 227 229 227 229 228 227 227 229 230 229 228 228 227 225
264 263 261 259 258 251 253 256 251 247 246 248 244 240 236 227 220 217 217 223 224 225 226 228 229 229 223 220 218 220 226 230 232 231 228 230 232 234 233 231 231 231
264 262 258 258 253 255 251 246 248 247 250 254 259 264 264 264 243 227 227 224 223 224 227 228 231 230 225 220 220 218 219 224 226 229 228 229 230 230 233 230 231 229
261 264 263 261 261 258 257 253 249 243 241 243 253 261 263 283 268 250 260 255 250 245 238 237 238 239 231 230 225 224 222 227 232 233 230 230 229 229 231 230 226 225
276 275 273 274 270 268 267 264 253 253 249 240 235 232 244 250 252 258 257 254 248 245 244 242 244 237 230 231 230 227 225 224 234 234 234 234 230 229 229 227 219 213
294 290 281 276 278 277 270 261 256 253 259 268 280 265 241 242 243 245 250 247 246 248 252 251 248 245 235 235 231 229 227 223 233 236 238 238 233 228 226 225 215 211
293 291 289 288 285 279 273 260 255 264 269 265 259 251 248 248 245 242 242 245 248 248 253 253 250 248 245 242 236 231 230 226 235 236 238 239 238 234 231 225 215 212
298 295 293 292 290 285 275 267 260 253 259 253 248 250 248 254 255 246 249 245 243 243 247 253 253 247 246 244 239 235 229 229 234 237 239 241 241 234 225 220 217 213
313 307 303 300 295 291 283 275 271 269 262 245 254 252 248 244 248 250 255 256 252 243 244 253 259 246 241 244 239 234 230 236 234 237 240 241 241 234 228 223 215 207
316 310 306 302 300 295 290 284 276 271 265 237 243 259 255 250 250 256 248 246 252 255 247 258 261 250 237 241 237 233 229 238 237 237 243 239 245 236 231 228 222 213
315 313 310 308 305 299 295 292 287 278 273 250 247 250 258 261 253 260 265 253 247 251 252 252 264 262 242 242 235 233 230 239 240 241 246 242 236 243 233 231 228 218
319 319 314 314 309 305 300 289 287 292 284 276 267 252 263 259 254 257 266 265 251 249 251 243 253 258 238 239 238 235 229 230 235 237 243 245 241 242 241 235 232 231